Regional Weather Roundup
Issued by NWS

Home | Current Version | Previous Version | Graphics & Text | Print | Product List | Glossary On
Versions: 1 2 3 4 5 6 7 8 9 10 11 12 13 14 15 16 17 18 19 20 21 22 23 24 25 26 27 28 29 30 31 32 33 34 35 36 37 38 39 40 41 42 43 44 45 46 47 48 49 50
000
ASUS44 KMEG 242100
RWRTN
TENNESSEE HOURLY STATE WEATHER ROUNDUP
NATIONAL WEATHER SERVICE MEMPHIS TN
300 PM CST SAT FEB 24 2018

TNZ002-004-019-021-049-052-054-088>092-242200-
WEST TENNESSEE

CITY           SKY/WX    TMP DP  RH WIND       PRES   REMARKS
MEMPHIS INTL   CLOUDY    74  65  73 S22G35    29.82S
NWS MEMPHIS      N/A     74 N/A N/A MISG        N/A
JACKSON        CLOUDY    73  66  78 S10G20    29.84F
DYERSBURG      PTSUNNY   65  62  90 S8        29.80F
$$

TNZ008-025-027-028-033-062-065-066-242200-
NORTH MIDDLE TENNESSEE

CITY           SKY/WX    TMP DP  RH WIND       PRES   REMARKS
NASHVILLE      PTSUNNY   77  60  55 S15G28    29.89F
CLARKSVILLE    LGT RAIN  68  63  84 S3        29.84F
SMYRNA         FAIR      76  62  62 S16G23    29.89F
CROSSVILLE     CLOUDY    65  57  75 S12G25    30.01F
$$

TNZ061-075-076-078-094-096-097-242200-
SOUTH MIDDLE TENNESSEE

CITY           SKY/WX    TMP DP  RH WIND       PRES   REMARKS
WINCHESTER     PTSUNNY   72  61  68 S13       29.99F
$$

TNZ017-018-042-046-047-242200-
NORTHEAST TENNESSEE

CITY           SKY/WX    TMP DP  RH WIND       PRES   REMARKS
TRI CITIES     CLOUDY    69  61  75 W8        30.03R
$$

TNZ012-013-036-069-073-074-242200-
CENTRAL EAST TENNESSEE

CITY           SKY/WX    TMP DP  RH WIND       PRES   REMARKS
KNOXVILLE      CLOUDY    71  59  65 SW9       29.99F
OAK RIDGE      CLOUDY    69  63  81 VRB3      30.01F
$$

TNZ083-085-099-242200-
SOUTHEAST TENNESSEE

CITY           SKY/WX    TMP DP  RH WIND       PRES   REMARKS
CHATTANOOGA    PTSUNNY   73  59  61 SW6       30.00F
$$

SKY/WX REPORTED AS FAIR MEANS FEW OR NO CLOUDS BELOW
12 THOUSAND FEET.




USA.gov is the U.S. government's official web portal to all federal, state and local government web resources and services.